Weather observations for the past three days for
Midland, Midland International Airport
Imperial (Metric)
Date Time (cdt) Wind (mph) Vis. (mi.) Weather Sky Cond. Temperature (ºF) Relative Humidity Wind Chill (°F) Heat Index (°F) Pressure Precipitation (in)
Air Dwpt 6 hour altimeter (in) sea level (mb) 1 hr 3 hr 6 hr
Max. Min.
15 19:53 S 21 G 28 10.00 Fair and Breezy CLR 93.9 59 31% 93 29.8 1003.7
15 18:53 S 15 10.00 Fair CLR 95 59 97 89.1 30% 94 29.8 1003.9
15 17:53 S 20 G 26 10.00 Fair CLR 96.1 60.1 30% 96 29.82 1004.2
15 16:53 S 20 G 29 10.00 Fair CLR 97 60.1 29% 97 29.83 1004.8
15 15:53 S 20 G 33 10.00 Fair CLR 93.9 61 33% 94 29.86 1005.7
15 14:53 S 20 G 25 10.00 Fair CLR 93 62.1 36% 94 29.88 1006.4
15 13:53 S 17 G 30 10.00 Fair CLR 91 61 37% 91 29.92 1007.6
15 12:53 S 22 G 30 10.00 Fair and Breezy CLR 89.1 63 90 73.9 42% 90 29.94 1008.5
15 11:53 S 24 G 35 10.00 Fair and Breezy CLR 87.1 64 46% 88 29.96 1009.0
15 10:53 S 20 G 30 10.00 Fair CLR 84 64.9 53% 86 29.97 1009.7
15 09:53 S 24 10.00 Fair and Breezy CLR 81 66 61% 83 29.99 1010.2
15 08:53 S 30 G 37 10.00 Fair and Windy CLR 78.1 66 67% 80 29.99 1010.3
15 07:53 S 18 G 29 10.00 Fair CLR 75.9 64.9 69% 78 29.99 1010.4
15 06:53 S 14 10.00 Fair CLR 73.9 62.1 82 73.9 67% 29.99 1010.3
15 05:53 S 16 10.00 Fair CLR 75 61 62% 77 29.99 1010.2
15 04:53 SE 12 10.00 Fair CLR 75.9 60.1 58% 78 29.98 1010.0
15 03:53 SE 8 10.00 Fair CLR 78.1 59 52% 79 29.99 1010.4
15 02:53 SE 13 10.00 Fair CLR 79 57.9 49% 80 29.97 1009.5
15 01:53 SE 16 10.00 Fair CLR 81 57.9 45% 81 29.97 1009.3
15 00:53 SE 13 10.00 Fair CLR 82 59 95 82 46% 82 29.97 1009.6
14 23:53 SE 14 10.00 Fair CLR 84 57.9 41% 83 29.97 1009.6
14 22:53 SE 10 10.00 Fair CLR 84 55.9 38% 83 29.96 1009.4
14 21:53 S 9 10.00 Fair CLR 86 55.9 36% 85 29.95 1008.7
14 20:53 SE 14 10.00 Fair CLR 90 55 31% 88 29.93 1008.1
14 19:53 S 21 G 24 10.00 Fair and Breezy CLR 93 55.9 29% 91 29.92 1008.0
14 18:53 SE 16 10.00 Fair CLR 95 55.9 97 90 27% 93 29.92 1007.8
14 17:53 Calm 10.00 Fair CLR 93.9 55.9 28% 92 29.94 1008.5
14 16:53 SE 16 10.00 A Few Clouds FEW070 95 57 28% 94 29.96 1009.2
14 15:53 SE 17 G 28 10.00 Partly Cloudy SCT060 93.9 59 31% 93 29.97 1009.7
14 14:53 S 13 G 26 10.00 A Few Clouds FEW060 93.9 59 31% 93 29.99 1010.2
14 13:53 S 18 G 25 10.00 A Few Clouds FEW055 93 62.1 36% 94 30.01 1010.9
14 12:53 S 10 G 24 10.00 A Few Clouds FEW048 90 63 91 73.9 41% 91 30.03 1011.6
14 11:53 S 15 G 29 10.00 A Few Clouds FEW040 89.1 66.9 48% 92 30.04 1011.9
14 10:53 S 14 10.00 Fair CLR 86 68 55% 89 30.04 1012.0
14 09:53 S 13 10.00 Fair CLR 82.9 68 61% 86 30.04 1012.0
14 08:53 S 16 10.00 Fair CLR 79 66.9 67% 81 30.04 1011.9
14 07:53 S 13 10.00 Fair CLR 75.9 64.9 69% 78 30.02 1011.2
14 06:53 S 8 10.00 Fair CLR 73.9 64 82.9 73.9 71% 30.02 1011.4
14 05:53 S 10 10.00 Fair CLR 75 63 66% 77 29.99 1010.3
14 04:53 S 13 10.00 Fair CLR 77 63 62% 79 29.98 1009.8
14 03:53 SE 13 10.00 Fair CLR 78.1 62.1 58% 80 29.99 1009.9
14 02:53 SE 9 10.00 Fair CLR 79 61 54% 80 29.98 1009.8
14 01:53 SE 6 10.00 Fair CLR 79 61 54% 80 29.98 1009.9
14 00:53 S 9 10.00 Fair CLR 82.9 60.1 96.1 82.9 46% 83 29.99 1010.0
13 23:53 S 9 10.00 Fair CLR 84 61 46% 84 29.99 1010.1
13 22:53 S 8 10.00 Fair CLR 86 59 40% 85 29.98 1009.8
13 21:53 S 9 10.00 Fair CLR 88 55.9 34% 86 29.95 1008.9
13 20:53 S 13 10.00 Fair CLR 91.9 57 31% 91 29.94 1008.6
13 19:53 S 10 10.00 Fair CLR 95 57 28% 94 29.94 1008.5
13 18:53 SE 13 G 22 10.00 Fair CLR 96.1 57.9 98.1 90 28% 95 29.94 1008.6
13 17:53 SE 13 G 21 10.00 Fair CLR 97 57.9 27% 96 29.96 1009.0
13 16:53 S 17 G 24 10.00 Fair CLR 97 59 28% 97 29.97 1009.5
13 15:53 SE 15 G 22 10.00 Fair CLR 97 57.9 27% 96 29.98 1009.8
13 14:53 SE 10 G 22 10.00 Fair CLR 95 62.1 34% 96 29.99 1010.3
13 13:53 SE 10 G 20 10.00 Fair CLR 93.9 62.1 35% 95 30.02 1011.2
13 12:53 S 7 10.00 Fair CLR 90 68 91 73 48% 94 30.03 1011.8
13 11:53 S 10 10.00 Fair CLR 87.1 69.1 55% 91 30.04 1012.0
13 10:53 S 10 G 20 10.00 Fair CLR 84 69.1 61% 88 30.03 1011.8
13 09:53 SE 15 10.00 Fair CLR 80.1 69.1 69% 83 30.04 1012.0
13 08:53 S 15 10.00 Fair CLR 77 69.1 77% 79 30.03 1011.7
13 07:53 SE 10 10.00 Fair CLR 73.9 70 88% 30.01 1011.2
13 06:53 SE 9 10.00 Fair CLR 73 69.1 80.1 73 87% 30 1010.6
13 05:53 SE 12 10.00 Fair CLR 73.9 68 82% 29.98 1009.9
13 04:53 SE 9 10.00 Fair CLR 75 68 79% 76 29.97 1009.4
13 03:53 SE 13 10.00 Fair CLR 75.9 66.9 74% 77 29.96 1009.2
13 02:53 SE 12 10.00 Fair CLR 78.1 64.9 64% 80 29.96 1009.3
13 01:53 SE 13 10.00 Fair CLR 79 63 58% 81 29.97 1009.4
13 00:53 SE 9 10.00 Fair CLR 80.1 62.1 91.9 80.1 54% 81 29.98 1010.0
12 23:53 SE 8 10.00 Fair CLR 81 62.1 53% 82 29.99 1010.3
12 22:53 SE 8 10.00 Fair CLR 82.9 62.1 49% 84 29.99 1010.4
12 21:53 SE 8 10.00 Fair CLR 86 57.9 39% 85 29.97 1009.9
12 20:53 S 7 10.00 Fair CLR 89.1 57 34% 88 29.96 1009.3
Date Time (cdt) Wind (mph) Vis. (mi.) Weather Sky Cond. Air Dwpt Max. Min. Relative Humidity Wind Chill (°F) Heat Index (°F) altimeter (in) sea level (mb) 1 hr 3 hr 6 hr
6 hour
Temperature (ºF) Pressure Precipitation (in)